Vorticity
6 4 6 7 7 10 13 5 5 4 5 7 10 12 10 24 13 12 11 19 11 14 12 8 10 1 12 8 12 29 19 13 11 10 8 12 9 6 6 7 6 6 6 5
9 5 5 6 7 8 10 10 8 4 3 5 7 10 15 7 15 24 19 5 18 11 16 10 14 1 20 23 14 30 19 14 15 11 13 13 11 9 7 7 9 8 6 5
2 8 4 6 5 9 7 9 10 8 5 4 6 7 8 13 8 6 21 23 12 18 12 17 12 12 1 6 30 21 0 26 7 22 11 11 13 9 8 7 6 5 3 7
1 8 5 5 5 6 8 7 9 8 8 5 5 6 9 10 11 9 7 16 23 15 16 22 18 11 13 5 16 5 22 18 12 14 15 9 15 12 10 6 6 4 7 7
1 6 7 5 4 5 6 7 6 8 8 11 5 3 4 7 8 13 9 6 19 20 15 19 20 22 13 9 10 15 5 9 9 12 10 12 17 13 11 12 7 5 5 4
6 7 10 4 4 4 4 6 8 7 7 8 12 5 5 4 7 11 11 11 7 17 21 21 13 9 11 12 11 8 13 11 7 9 9 10 10 12 9 6 5 6 6 8
5 8 13 4 4 5 5 4 6 8 8 7 9 13 7 5 5 4 4 10 12 8 14 24 16 6 7 8 7 7 9 9 8 9 9 8 6 6 5 5 4 7 13 11
5 10 11 7 3 5 5 5 5 7 9 8 7 10 9 11 5 6 5 6 6 9 11 7 16 22 14 12 7 7 7 4 5 8 7 6 10 12 16 14 9 16 14 7
7 6 9 7 4 3 5 6 6 5 8 10 9 7 9 7 14 10 6 4 4 3 4 8 13 9 7 13 18 17 17 11 11 13 8 10 9 8 9 12 7 1 5 6
5 6 -1 6 4 3 4 6 6 6 5 10 9 9 7 8 10 6 11 10 7 6 4 5 5 7 6 11 12 10 9 10 12 11 13 10 9 9 9 8 9 7 6 5
3 5 8 1 4 4 3 6 6 5 5 5 11 9 8 11 8 9 9 5 9 11 7 5 4 4 5 4 6 4 4 4 5 5 6 5 4 5 3 4 4 5 4 4
3 5 7 -2 1 4 4 4 3 5 5 4 6 11 9 5 10 13 10 8 8 6 7 10 12 9 6 5 5 5 5 6 6 4 5 5 5 4 5 5 4 5 6 8
11 16 6 3 3 -2 1 3 4 2 11 5 7 6 11 7 6 6 13 15 8 10 9 9 7 6 5 8 8 9 9 9 9 7 10 9 9 9 9 9 10 9 9 7
3 11 19 13 8 8 1 5 4 1 8 7 8 5 6 11 7 12 10 10 18 12 6 10 8 7 6 6 2 6 6 6 7 8 9 9 7 6 6 7 7 7 6 5
3 5 9 13 11 12 14 8 4 5 10 3 7 6 2 -1 4 -3 5 9 5 13 14 11 11 10 8 7 14 9 8 9 13 15 13 12 12 12 12 10 9 8 8 7
10 9 8 5 7 8 9 10 10 9 10 2 9 8 10 6 5 5 5 6 5 9 6 8 10 9 11 11 9 4 4 5 6 8 6 5 6 6 7 8 9 9 9 8
4 3 8 8 4 5 6 8 7 4 7 3 6 6 7 8 5 5 6 5 6 6 7 9 11 8 6 9 9 7 8 7 6 6 4 5 5 5 7 7 7 7 7 7
10 2 3 5 3 2 6 9 7 8 4 6 5 4 8 10 9 10 10 7 6 6 5 4 4 3 3 5 5 3 3 4 2 3 11 10 7 8 7 6 6 6 6 7
9 9 5 12 -0 3 4 4 11 10 5 6 2 4 4 3 6 7 9 9 9 6 6 7 6 7 8 6 7 7 4 6 7 5 6 6 5 6 8 8 8 8 8 8
15 12 11 8 2 10 10 16 5 8 7 6 4 10 9 7 6 6 6 3 2 2 3 5 5 2 3 5 6 6 5 4 5 5 6 6 7 8 7 7 8 8 9 10
18 -1 9 11 8 6 10 16 4 3 6 4 7 14 14 13 9 9 8 7 5 3 2 5 6 3 7 7 10 8 9 10 10 10 10 10 9 10 11 11 13 14 13 10
9 -1 15 19 5 8 18 14 10 2 3 3 9 5 6 5 9 10 9 9 8 8 7 6 5 10 8 8 7 8 7 8 10 10 11 13 15 14 15 14 13 14 12 10
13 13 6 -13 -12 13 5 10 7 6 17 6 0 5 11 18 12 10 13 13 13 12 8 8 13 11 6 9 11 12 11 14 14 15 15 13 14 16 14 13 13 11 13 14
-5 9 15 13 10 -9 13 21 14 9 9 6 13 12 11 15 13 9 18 9 11 10 20 27 12 11 8 5 10 13 13 12 11 11 12 13 13 11 13 16 18 19 14 9
16 1 -6 -3 -8 15 14 15 -4 3 9 4 11 2 -0 7 8 11 4 5 -2 8 19 5 6 9 14 18 13 14 14 11 11 10 12 14 14 13 15 14 10 8 9 9
13 11 6 -2 -1 -6 7 12 -3 -3 4 6 -4 -8 5 3 7 7 7 4 16 19 8 7 9 11 14 16 13 11 10 10 11 14 15 12 10 11 9 7 5 6 6 5
11 11 11 4 8 12 3 1 7 13 -1 -4 7 14 12 11 10 10 5 10 9 6 5 8 13 15 16 11 8 9 9 11 12 12 9 7 7 6 4 5 7 4 5 5
Height
5731 5728 5725 5721 5717 5712 5708 5703 5699 5693 5687 5683 5675 5670 5664 5659 5656 5653 5652 5651 5651 5650 5650 5652 5653 5657 5659 5663 5666 5670 5676 5681 5688 5694 5700 5706 5713 5720 5727 5734 5742 5747 5752 5758
5729 5726 5724 5720 5717 5714 5709 5705 5700 5696 5691 5686 5681 5676 5671 5665 5662 5659 5657 5656 5654 5654 5655 5657 5658 5659 5661 5664 5667 5672 5677 5682 5689 5695 5702 5708 5714 5720 5727 5733 5739 5744 5750 5755
5725 5724 5722 5720 5717 5714 5711 5706 5702 5698 5694 5690 5686 5681 5677 5672 5667 5664 5662 5660 5658 5657 5657 5659 5661 5663 5666 5667 5669 5674 5679 5683 5690 5699 5706 5711 5716 5721 5726 5731 5737 5741 5746 5750
5722 5721 5720 5718 5716 5714 5711 5707 5704 5700 5697 5693 5690 5687 5682 5678 5674 5670 5667 5665 5663 5662 5661 5662 5663 5666 5669 5672 5675 5678 5683 5686 5692 5698 5704 5709 5714 5719 5724 5729 5734 5738 5742 5745
5718 5717 5717 5716 5715 5713 5711 5707 5704 5701 5698 5696 5693 5691 5688 5684 5681 5677 5673 5671 5669 5668 5667 5667 5668 5670 5673 5677 5679 5682 5686 5690 5694 5698 5704 5709 5714 5718 5723 5727 5730 5735 5739 5742
5713 5713 5714 5714 5713 5711 5709 5707 5704 5702 5700 5698 5696 5693 5691 5689 5686 5683 5680 5677 5675 5674 5674 5674 5675 5676 5679 5681 5683 5686 5689 5692 5696 5701 5704 5709 5715 5719 5723 5726 5729 5732 5735 5737
5707 5708 5709 5710 5710 5709 5708 5706 5705 5702 5700 5698 5697 5696 5694 5692 5690 5688 5686 5684 5681 5681 5679 5680 5681 5682 5684 5685 5687 5689 5692 5695 5699 5703 5706 5710 5715 5717 5721 5723 5725 5728 5730 5732
5700 5702 5704 5705 5706 5706 5705 5704 5703 5702 5700 5698 5697 5696 5695 5694 5693 5691 5690 5689 5688 5686 5685 5685 5686 5687 5689 5690 5691 5694 5696 5698 5701 5704 5707 5711 5712 5715 5718 5719 5722 5723 5724 5726
5693 5696 5698 5700 5701 5702 5702 5702 5701 5700 5699 5698 5696 5695 5695 5695 5694 5693 5692 5692 5691 5690 5690 5690 5690 5691 5692 5694 5695 5697 5698 5700 5702 5704 5706 5708 5710 5712 5713 5715 5718 5719 5720 5721
5686 5689 5691 5694 5696 5697 5698 5698 5698 5698 5697 5696 5695 5694 5694 5694 5694 5694 5693 5693 5692 5692 5692 5693 5693 5694 5695 5696 5697 5698 5700 5702 5704 5705 5707 5709 5710 5712 5713 5715 5719 5716 5717 5718
5677 5680 5683 5687 5689 5691 5692 5693 5694 5695 5694 5694 5693 5693 5692 5692 5692 5693 5693 5694 5693 5693 5693 5693 5693 5694 5696 5697 5698 5699 5701 5702 5703 5704 5706 5708 5708 5709 5710 5711 5711 5711 5711 5711
5666 5671 5674 5678 5681 5684 5686 5686 5688 5689 5690 5691 5690 5690 5690 5690 5690 5690 5690 5691 5692 5693 5693 5693 5693 5694 5695 5696 5697 5698 5700 5701 5702 5703 5704 5704 5704 5705 5705 5706 5705 5705 5705 5704
5656 5661 5665 5668 5672 5676 5679 5680 5681 5683 5684 5686 5687 5687 5687 5687 5687 5687 5688 5688 5688 5690 5691 5692 5692 5693 5694 5694 5695 5695 5696 5696 5697 5698 5698 5697 5698 5698 5698 5699 5698 5698 5697 5695
5646 5650 5654 5658 5662 5666 5670 5672 5674 5676 5678 5679 5681 5682 5682 5683 5683 5683 5683 5684 5684 5685 5687 5688 5689 5690 5691 5691 5692 5691 5690 5691 5691 5692 5690 5691 5690 5691 5691 5691 5690 5689 5688 5686
5635 5640 5645 5648 5651 5656 5660 5663 5665 5668 5671 5672 5674 5675 5677 5678 5678 5679 5679 5680 5680 5681 5681 5682 5683 5684 5686 5686 5686 5683 5683 5686 5686 5687 5686 5686 5685 5684 5683 5682 5681 5679 5677 5676
5624 5630 5635 5638 5642 5646 5649 5653 5657 5659 5661 5664 5666 5668 5669 5671 5672 5673 5674 5675 5675 5676 5677 5677 5677 5677 5679 5680 5680 5677 5677 5678 5678 5680 5679 5679 5677 5676 5675 5673 5672 5669 5667 5665
5613 5619 5623 5627 5632 5636 5640 5643 5648 5649 5652 5654 5657 5659 5661 5663 5664 5665 5665 5667 5668 5670 5671 5672 5672 5671 5674 5676 5675 5672 5671 5671 5671 5670 5670 5670 5669 5667 5665 5663 5661 5659 5656 5653
5601 5606 5612 5615 5620 5624 5629 5631 5635 5639 5642 5645 5646 5651 5653 5654 5655 5656 5657 5658 5660 5662 5662 5665 5664 5664 5665 5669 5666 5666 5666 5665 5664 5663 5662 5660 5659 5657 5655 5653 5649 5646 5643 5639
5588 5592 5597 5601 5608 5614 5616 5620 5624 5627 5632 5633 5635 5641 5644 5644 5645 5646 5648 5649 5650 5651 5653 5655 5655 5656 5658 5657 5657 5656 5655 5655 5654 5652 5650 5648 5646 5644 5642 5639 5636 5633 5629 5626
5574 5577 5581 5588 5596 5600 5603 5606 5611 5615 5618 5621 5627 5632 5633 5635 5634 5635 5638 5638 5640 5640 5644 5643 5645 5647 5649 5646 5645 5644 5643 5642 5640 5639 5638 5635 5632 5630 5627 5624 5621 5617 5613 5610
5558 5561 5567 5575 5580 5584 5587 5592 5598 5604 5608 5612 5617 5618 5619 5621 5623 5624 5626 5626 5628 5629 5631 5631 5633 5637 5636 5634 5632 5631 5630 5628 5627 5625 5623 5620 5617 5614 5611 5608 5605 5602 5598 5593
5543 5552 5557 5561 5562 5567 5573 5579 5587 5593 5597 5604 5605 5605 5607 5609 5611 5612 5613 5615 5615 5616 5619 5620 5621 5622 5620 5619 5618 5616 5615 5614 5612 5610 5607 5605 5601 5598 5595 5592 5589 5585 5580 5576
5529 5535 5540 5543 5543 5548 5557 5570 5579 5584 5591 5593 5592 5593 5595 5596 5598 5599 5601 5601 5603 5605 5606 5607 5610 5607 5605 5603 5602 5601 5600 5598 5596 5594 5591 5589 5586 5583 5581 5577 5573 5569 5565 5560
5515 5516 5518 5521 5523 5536 5552 5564 5570 5575 5577 5577 5577 5580 5582 5583 5584 5586 5588 5589 5590 5591 5595 5597 5592 5591 5591 5590 5589 5587 5585 5583 5580 5577 5575 5573 5571 5568 5565 5561 5558 5555 5551 5547
5492 5496 5497 5505 5521 5535 5544 5550 5555 5561 5563 5565 5566 5568 5570 5570 5571 5574 5576 5577 5578 5581 5583 5580 5580 5580 5579 5578 5576 5574 5572 5569 5567 5564 5562 5559 5557 5554 5551 5548 5545 5542 5538 5535
5468 5474 5486 5506 5518 5527 5530 5536 5542 5548 5549 5550 5551 5554 5556 5558 5558 5562 5563 5565 5568 5567 5566 5567 5567 5566 5565 5564 5563 5561 5558 5556 5554 5551 5549 5547 5545 5542 5540 5536 5531 5527 5523 5519
5449 5471 5485 5496 5507 5515 5520 5524 5528 5530 5530 5533 5534 5537 5541 5543 5544 5550 5553 5556 5553 5552 5553 5553 5553 5553 5551 5550 5549 5547 5545 5543 5541 5539 5537 5535 5532 5529 5526 5523 5517 5513 5507 5502